SCP
0 0 0 0 0 0 0 0 0 0 0 0 0 0 -0 0 0 0 0 0 0 0 0 0 0 0 0 0 0 0 0 0 0 -0 -0 0 0 0 0 0 0 0 0 0 0 0 0 0 0 0 0 0 0 0
0 0 0 0 0 0 0 0 0 0 0 0 0 0 0 0 0 0 0 0 0 0 0 0 0 0 -0 -0 0 0 0 0 0 -0 -0 0 0 0 0 0 -0 0 0 0 0 0 -0 -0 -0 0 0 0 0 0
0 0 0 0 0 0 0 0 0 0 0 0 0 0 0 0 0 0 0 0 0 0 0 0 0 0 0 -0 -0 0 0 0 0 0 0 0 -0 0 -0 -0 0 0 0 0 0 0 0 -0 0 0 0 -0 0 0
0 0 0 0 0 0 0 0 0 0 0 0 0 0 0 0 0 0 0 0 0 0 0 0 0 0 0 0 -0 -0 0 0 0 0 0 0 0 0 -0 0 0 0 0 0 0 0 0 0 -0 0 0 -0 0 0
0 0 0 0 0 0 0 0 0 0 0 0 0 0 0 0 0 0 0 0 0 0 0 0 0 0 -0 0 0 -0 -0 0 0 0 0 0 0 0 0 0 0 0 0 0 0 0 0 0 -0 -0 -0 0 0 0
0 0 0 0 0 0 0 0 0 0 0 0 0 0 0 0 0 0 0 0 0 0 0 0 0 0 0 0 0 0 0 0 0 0 0 0 0 -0 0 0 -0 0 0 0 0 0 0 0 0 0 -0 0 0 0
0 0 0 0 0 0 0 0 0 0 0 0 0 0 0 0 0 0 0 0 0 0 0 0 0 -0 0 0 0 0 0 0 0 0 0 0 0 0 0 0 -0 0 -0 -0 -0 0 0 0 0 0 0 0 0 0
0 0 0 0 0 0 0 0 0 0 0 0 0 0 0 0 0 0 0 0 0 0 0 0 0 0 0 0 0 0 0 0 0 0 0 0 0 0 -0 -0 -0 -0 -0 0 -0 -0 0 0 0 0 0 0 0 0
0 0 0 0 0 0 0 0 0 0 0 0 0 0 0 0 0 0 -0 0 0 0 0 0 0 0 0 0 0 0 0 0 0 0 0 0 0 0 0 -0 -0 -0 -0 -0 0 -0 -0 -0 0 -0 0 0 0 0
0 0 0 0 0 0 0 0 0 0 0 0 0 0 0 0 0 0 0 0 0 0 0 0 0 0 0 0 0 0 0 0 0 0 0 0 0 0 0 0 -0 -0 -0 -0 -0 -0 -0 -0 -0 -0 0 0 0 0
0 0 0 0 0 0 0 0 0 0 0 0 0 0 0 0 0 0 0 0 0 0 -0 0 0 0 0 0 0 0 0 0 0 0 0 0 0 -0 0 0 -0 -0 -0 -0 -0 0 -0 -0 -0 -0 -0 0 0 0
0 0 0 0 0 0 0 0 0 0 0 0 0 0 0 0 0 0 0 0 0 0 0 0 0 0 0 0 0 0 0 0 0 0 0 0 0 0 0 0 0 -0 -0 0 -0 -0 0 -0 0 0 0 0 0 0
0 0 0 0 0 0 0 0 0 0 0 0 0 0 0 0 0 0 0 0 0 0 0 0 0 0 0 0 0 0 0 0 0 0 0 0 0 0 0 0 0 0 -0 -0 0 -0 -0 -0 0 0 0 0 0 0
0 0 0 0 0 0 0 0 0 0 0 0 0 0 0 0 0 0 0 0 0 0 0 0 0 0 0 0 0 0 0 0 0 0 -0 0 0 0 0 0 0 -0 -0 -0 -0 0 -0 -0 0 0 0 0 0 0
0 0 0 0 0 0 0 0 0 0 0 0 0 0 0 0 0 0 0 0 0 0 0 0 0 0 0 0 0 0 0 0 0 0 0 0 0 0 0 0 0 -0 -0 -0 -0 -0 -0 -0 -0 0 0 0 0 0
0 0 0 0 0 0 0 0 0 0 0 0 0 0 0 0 0 0 0 0 0 0 0 0 0 0 0 0 0 0 0 0 0 0 0 0 0 0 0 0 0 0 0 -0 -0 -0 -0 -0 0 0 0 0 0 0
0 0 0 0 0 0 0 0 0 0 0 0 0 0 0 0 0 0 0 0 0 0 0 0 0 0 0 0 0 0 0 0 0 0 0 0 0 0 0 0 0 0 -0 -0 -0 -0 -0 -0 0 0 0 0 0 0
0 0 0 0 0 0 0 0 0 0 0 0 0 0 0 0 0 0 0 0 0 0 0 0 0 0 0 0 0 0 0 0 0 0 0 0 0 0 0 0 0 0 -0 0 0 0 -0 -0 -0 -0 0 0 0 0
0 0 0 0 0 0 0 0 0 0 0 0 0 0 0 0 0 0 0 0 0 0 0 0 0 0 0 0 0 0 0 0 0 0 0 0 0 0 0 0 0 0 0 0 0 0 0 0 0 -0 -0 -0 -0 -0
0 0 0 0 0 0 0 0 0 0 0 0 0 0 0 0 0 0 0 0 0 0 0 0 0 0 0 0 0 0 0 0 0 0 -0 0 0 0 0 0 0 0 0 0 0 0 0 0 0 0 0 -0 -0 -0
0 0 0 0 0 0 0 0 0 0 0 0 0 -0 -0 0 0 0 0 0 0 0 0 0 0 0 0 0 0 0 0 0 0 0 0 0 0 0 0 0 0 0 0 0 0 0 0 0 0 0 0 0 -0 -0
0 0 0 0 0 0 0 0 0 0 0 0 0 0 0 0 0 0 0 0 0 0 0 0 0 0 0 0 0 0 0 -0 0 0 0 0 0 0 0 0 0 0 0 0 0 -0 -0 -0 0 0 0 -0 -0 -0
0 0 0 0 0 0 0 0 0 0 0 -0 -0 -0 0 0 0 0 0 0 0 0 0 0 0 0 0 0 0 0 0 0 0 0 0 0 0 0 0 0 0 0 0 0 0 -0 -0 -0 -0 0 0 0 0 0
0 0 0 0 0 0 0 0 0 0 0 -0 0 -0 -0 0 -0 -0 0 0 0 0 0 0 0 0 0 0 0 0 0 0 0 0 0 0 0 0 0 0 0 0 0 -0 -0 -0 -0 -0 -0 0 0 0 0 0
0 0 0 0 0 0 0 0 0 0 0 0 0 0 0 0 0 0 0 0 0 0 0 0 0 0 0 0 0 0 0 0 0 0 0 0 0 0 0 0 0 0 -0 -0 -0 -0 -0 -0 -0 -0 -0 0 0 0
0 0 0 0 0 0 0 0 0 0 0 0 0 0 0 0 0 -0 0 0 0 0 0 0 0 0 0 0 0 0 0 0 0 0 0 0 0 0 0 0 0 0 0 0 -0 -0 -0 -0 -0 -0 -0 -0 -0 -0
0 0 0 0 0 0 0 0 0 0 -0 -0 0 0 0 0 0 0 0 0 0 0 0 0 0 0 0 0 0 0 0 0 0 0 0 0 0 0 0 0 0 0 0 0 0 0 -0 -0 -0 -0 -0 -0 -0 -0
0 0 0 0 0 0 0 0 0 -0 -0 -0 0 -0 0 0 0 0 0 -0 -0 -0 0 0 0 0 0 0 0 0 0 0 0 0 0 0 0 0 0 0 0 0 0 0 0 0 0 0 0 -0 -0 -0 -0 -0
0 0 0 0 0 0 0 0 0 0 0 0 0 0 -0 -0 -0 0 0 -0 -0 -0 0 0 0 0 0 0 0 0 0 0 0 0 0 0 0 0 0 0 0 0 0 0 0 0 0 0 0 0 0 0 0 0
0 0 0 0 0 0 0 0 0 0 0 0 0 0 0 -0 0 0 0 -0 -0 -0 0 0 0 -0 0 0 0 0 0 0 0 0 0 0 0 0 0 0 0 0 0 0 0 0 0 0 0 0 0 0 0 0
0 0 0 0 0 0 0 0 0 0 0 0 0 0 0 0 0 0 0 0 0 0 0 -0 -0 0 0 0 0 0 0 0 0 0 0 0 0 0 0 0 0 0 0 0 0 0 0 0 0 0 0 0 0 0
0 0 0 0 0 0 0 0 0 0 0 0 0 0 0 0 0 0 0 0 0 0 0 0 0 -0 0 0 0 0 0 0 0 0 0 0 0 0 0 0 0 0 0 0 0 0 0 0 0 0 0 0 0 0
0 0 0 0 0 0 0 0 0 0 0 0 0 0 0 0 0 0 0 0 0 0 0 0 0 0 -0 0 0 0 0 0 -0 -0 -0 0 0 0 0 0 0 0 0 0 0 0 0 0 0 0 0 0 0 0
Wind_Speed_500mb
51 54 58 58 59 59 57 57 56 59 56 53 52 42 31 28 20 24 33 28 30 22 48 50 44 25 31 22 5 16 19 7 8 10 6 5 5 6 7 7 12 5 6 3 4 10 3 11 17 6 15 45 42 27
52 53 56 66 68 63 56 52 56 54 52 50 46 44 38 24 22 24 39 33 31 40 54 75 83 76 80 72 36 10 9 9 7 4 3 4 5 5 7 5 8 6 3 7 5 6 23 36 25 34 42 48 21 33
53 55 59 65 69 65 58 54 53 50 50 49 45 41 36 28 15 23 36 34 37 36 46 37 13 1 17 15 24 16 11 8 7 5 3 4 8 3 5 5 7 8 3 6 13 6 16 17 27 26 33 43 31 40
54 58 61 65 67 63 56 51 51 51 50 47 42 40 36 29 24 29 36 34 35 18 10 19 15 51 35 30 35 34 21 7 7 9 6 5 6 9 5 8 5 10 10 10 12 17 42 13 46 37 42 39 37 61
57 60 62 62 60 58 55 52 49 47 48 46 44 41 38 31 27 32 39 39 37 30 9 26 53 6 17 18 30 30 46 29 9 5 6 5 7 4 6 3 6 5 7 6 12 36 30 39 53 46 44 39 49 63
59 57 56 56 55 55 52 50 48 47 45 46 44 40 33 27 24 21 11 7 5 28 9 7 20 15 21 3 15 26 34 31 12 7 9 11 12 6 4 4 13 15 26 18 15 47 51 47 42 29 38 40 49 50
55 53 54 54 51 50 50 50 49 48 48 46 45 37 29 24 23 14 7 5 9 15 8 8 12 9 19 4 12 19 25 19 15 8 8 8 9 10 4 5 12 35 30 38 42 52 32 39 39 38 44 42 51 41
53 51 52 51 49 49 50 49 49 48 44 45 42 32 23 21 22 23 4 18 23 15 11 5 8 14 5 6 6 13 11 13 11 7 7 7 8 5 6 15 25 26 30 31 50 53 46 43 35 29 33 48 59 62
51 50 49 47 47 47 47 48 47 43 43 44 26 14 7 2 6 6 10 9 40 19 8 7 3 7 5 10 8 7 11 5 6 5 6 7 3 7 11 11 18 20 26 33 46 46 43 36 30 25 24 38 54 58
48 49 47 45 43 43 45 44 46 44 46 34 15 5 7 4 12 14 6 7 11 18 16 8 12 6 6 5 3 2 4 3 4 8 4 4 6 21 22 8 9 24 29 32 35 38 36 34 35 33 34 29 32 35
45 46 45 44 41 40 39 38 41 49 44 31 18 6 9 13 11 6 6 9 9 6 11 12 24 13 12 6 6 4 2 2 3 5 3 5 6 7 2 4 13 18 20 25 29 25 27 23 26 31 35 30 29 28
41 43 42 40 39 36 34 33 38 48 41 38 24 23 12 6 7 4 7 8 9 8 9 8 11 21 9 14 4 5 4 2 8 6 3 5 7 6 8 4 7 16 17 18 29 33 30 26 28 28 31 31 27 26
41 39 39 38 38 36 34 33 39 42 43 11 6 7 7 6 7 11 10 7 6 8 5 11 7 9 11 11 6 2 2 8 3 4 6 8 7 7 11 8 1 8 18 20 24 31 32 24 20 25 30 31 22 22
40 37 35 37 36 34 36 38 43 40 20 5 7 9 10 9 12 10 9 5 5 12 18 28 16 11 11 5 4 6 5 5 5 2 10 6 18 16 18 9 5 7 8 16 22 27 32 31 27 21 23 26 22 24
40 39 32 25 25 36 43 42 41 34 11 9 8 10 11 19 18 13 19 15 21 28 16 13 4 4 2 5 5 3 4 5 10 9 6 11 17 23 21 17 13 7 3 13 23 27 29 28 25 22 22 20 22 18
39 39 22 31 35 40 42 42 38 13 9 12 16 10 18 4 9 7 10 20 20 19 29 9 4 5 8 4 5 11 12 11 8 7 15 9 18 25 21 20 11 9 2 4 11 20 25 24 26 24 18 14 19 18
36 30 36 37 39 40 38 38 11 12 12 11 14 22 34 35 26 26 14 37 32 19 5 5 9 13 4 4 4 6 9 7 14 14 16 19 23 23 19 13 15 13 7 3 11 16 21 22 21 23 29 23 19 17
33 34 34 33 37 41 33 6 9 10 13 21 13 19 12 22 30 33 36 35 17 8 7 6 3 7 7 7 5 5 16 25 19 21 18 19 20 21 21 21 19 17 11 8 5 11 17 18 22 26 25 22 18 21
34 35 33 28 18 22 10 7 9 10 17 26 27 38 30 31 39 37 37 37 37 28 13 9 9 7 7 11 10 25 31 10 25 27 22 24 23 21 22 26 21 23 18 13 7 9 12 16 22 21 21 24 34 32
31 27 18 14 19 10 8 12 11 16 12 16 35 37 25 30 39 39 46 47 41 13 11 6 7 6 12 26 28 34 34 33 20 35 49 25 30 26 30 28 24 25 24 23 17 8 10 14 18 21 24 32 36 36
29 27 28 29 15 13 10 11 11 13 21 16 28 30 32 37 26 32 21 12 9 2 5 19 31 41 41 36 38 38 37 42 49 44 44 32 27 35 36 31 24 33 36 33 29 23 13 14 17 19 21 29 35 40
25 32 31 17 5 4 11 12 13 24 16 23 28 14 16 12 18 15 17 1 8 12 16 32 42 50 48 40 41 39 37 32 34 40 47 44 28 35 43 44 38 38 42 34 33 30 24 18 19 20 20 27 35 39
28 24 11 7 5 6 13 12 8 9 7 15 28 10 7 9 9 18 5 11 13 28 34 34 40 39 42 37 38 33 24 25 35 38 38 44 33 28 31 44 41 41 46 40 39 33 28 25 20 19 20 23 29 35
17 5 4 6 5 9 13 6 7 11 9 8 8 10 12 12 20 12 6 7 20 49 48 44 43 50 45 40 44 44 38 21 24 39 45 39 42 39 34 44 38 39 40 39 43 38 32 28 25 22 21 25 30 32
4 2 3 7 7 5 7 4 7 3 6 17 6 6 5 11 5 5 5 21 46 47 53 53 43 43 47 55 48 45 37 32 20 23 28 27 29 39 36 45 43 41 41 49 50 45 40 34 29 26 26 27 27 27
3 5 7 6 5 4 6 6 6 6 14 7 6 16 16 4 2 8 7 35 47 52 54 50 53 52 52 54 63 54 39 34 23 21 25 27 30 37 43 45 46 48 43 43 51 52 48 44 37 33 28 25 25 27
5 8 8 10 10 14 10 14 21 7 6 6 6 7 6 7 9 9 32 44 52 51 44 43 46 43 42 53 60 57 20 19 12 10 9 12 28 26 36 45 35 35 33 36 52 52 48 49 45 39 33 26 23 23
12 8 7 5 10 12 7 5 5 4 5 6 15 5 7 7 6 22 36 46 43 44 43 42 41 43 47 54 61 68 41 21 30 38 31 23 17 18 22 27 19 18 14 23 42 50 46 42 45 43 38 31 29 28
9 9 10 20 13 8 8 8 6 6 4 5 6 5 7 7 20 26 37 40 42 44 46 48 48 44 42 47 60 69 70 67 52 51 48 40 32 31 18 17 17 17 14 19 43 48 42 38 39 39 36 32 30 30
8 9 7 7 6 6 10 18 12 12 13 19 9 21 20 22 39 30 33 41 48 45 43 43 45 48 52 57 53 59 60 64 68 64 55 50 43 27 20 13 6 6 7 20 38 41 40 33 42 45 42 40 37 36
7 5 7 10 10 12 17 15 16 10 2 7 6 12 18 9 21 47 43 40 42 46 48 53 55 56 57 57 60 59 64 61 62 60 53 41 29 19 12 10 12 9 22 24 43 45 49 46 50 55 52 47 40 37
8 13 7 5 10 15 20 6 7 7 8 11 14 7 8 8 11 27 52 40 42 45 45 44 48 53 55 55 54 52 51 50 54 59 63 68 60 36 12 7 6 14 17 21 31 48 50 51 59 57 58 53 45 39
13 15 12 7 8 6 5 8 7 8 8 6 9 17 15 8 8 21 29 40 38 34 30 31 32 37 43 46 48 48 49 49 51 51 50 49 54 59 43 28 19 11 12 11 19 30 36 43 44 53 57 57 51 47
Wind_Direction_500mb
321 323 326 329 328 325 321 320 324 322 321 325 330 326 320 310 294 288 292 289 283 264 284 279 272 255 273 259 248 317 333 339 352 28 346 348 294 327 301 298 320 314 298 273 249 237 313 323 331 299 308 297 300 328
321 324 327 328 329 330 327 326 320 322 320 321 323 322 323 307 307 289 285 291 287 271 270 288 288 278 263 256 262 274 287 308 294 32 306 316 307 295 292 301 331 299 170 297 209 272 270 296 229 268 288 307 307 322
320 321 321 322 324 323 323 323 322 321 321 322 324 321 321 307 291 285 287 290 288 286 295 290 315 158 327 292 215 221 238 217 244 245 260 272 277 275 303 301 299 277 231 263 303 264 317 333 337 268 316 308 305 322
316 316 319 320 320 322 323 323 322 322 320 320 320 318 313 307 278 268 274 274 276 269 281 285 293 305 301 273 240 255 233 224 275 248 254 253 260 211 263 267 260 237 329 295 273 293 324 294 325 332 334 335 334 339
314 315 317 314 319 321 323 325 325 323 322 323 324 320 315 300 293 295 297 283 258 236 284 288 309 326 324 273 239 223 220 237 226 232 233 250 259 256 229 261 259 228 266 328 315 315 315 304 318 334 337 341 331 333
316 319 320 320 321 321 324 327 326 323 323 320 317 314 309 300 293 328 324 18 231 209 270 296 321 307 339 346 193 199 213 228 235 224 237 262 256 246 280 263 264 288 323 333 288 324 314 313 318 336 330 330 328 337
316 319 319 320 321 321 325 326 326 327 327 321 318 310 299 286 275 241 245 280 329 193 255 274 294 282 313 242 188 209 220 226 231 249 230 249 276 217 252 244 278 330 323 338 338 338 327 332 330 345 331 337 347 354
316 319 318 320 321 324 326 327 329 330 328 326 320 310 295 276 267 269 350 240 189 212 251 277 278 316 236 254 232 200 208 217 231 240 247 223 275 247 264 255 302 327 338 359 345 353 343 341 351 1 343 342 351 8
314 316 317 321 323 326 328 329 330 333 334 331 325 335 334 191 188 219 273 262 221 204 274 201 209 270 280 264 229 217 213 198 244 234 242 176 209 234 233 265 314 342 358 345 341 352 357 9 16 23 16 356 2 17
312 313 317 320 322 326 328 332 334 336 338 336 320 265 255 232 268 289 242 228 201 211 223 240 196 258 293 280 263 217 219 236 220 235 256 229 258 263 273 287 359 359 353 352 352 341 359 11 20 19 27 35 16 14
311 313 317 322 324 327 329 335 338 337 346 358 339 296 282 271 288 240 230 207 191 262 234 238 221 229 248 202 233 203 209 223 285 271 226 256 266 256 100 347 3 360 5 9 12 5 6 11 16 11 18 26 40 40
311 312 316 322 323 326 328 335 340 340 341 325 310 303 307 251 243 239 216 180 195 234 211 202 236 209 237 219 205 202 204 129 249 335 40 275 256 255 286 183 357 1 1 11 16 19 13 19 37 34 25 25 35 45
316 315 317 319 318 318 318 330 336 335 331 327 290 271 242 232 235 219 211 217 213 192 161 336 285 235 197 221 227 129 166 231 348 38 236 231 261 248 174 199 130 8 349 1 4 10 16 15 19 35 40 35 39 60
313 318 319 319 315 312 318 324 327 331 330 269 243 257 206 216 224 208 196 205 172 229 270 285 230 210 174 181 172 175 224 74 20 319 240 250 219 206 192 204 273 317 356 15 14 12 8 11 14 28 46 48 48 67
313 320 325 322 319 312 314 315 313 313 268 253 221 241 237 238 258 269 262 269 286 306 332 318 216 195 143 269 210 136 107 260 208 233 235 251 194 182 195 215 242 267 354 16 14 12 12 10 21 28 32 48 52 53
314 323 326 323 318 312 314 314 315 295 238 235 230 256 255 300 290 275 299 289 314 314 312 223 185 220 214 214 193 211 135 222 248 223 250 229 196 199 206 206 220 198 254 51 68 23 15 21 20 24 36 50 69 64
316 326 327 329 322 319 319 315 281 225 235 239 248 254 264 280 265 281 291 295 307 304 253 181 198 219 160 203 231 206 201 227 221 237 247 224 213 205 210 205 203 188 187 103 36 34 39 27 20 30 45 51 55 70
317 324 329 329 327 327 325 267 256 252 251 254 257 270 272 269 280 292 300 309 300 262 265 262 176 195 220 213 237 235 273 268 250 264 270 245 235 212 202 197 199 197 197 160 101 55 44 37 36 39 42 55 62 64
322 331 335 330 324 328 298 274 243 264 255 275 278 286 285 291 297 298 296 300 302 286 271 249 239 198 220 224 224 232 258 289 291 305 297 248 239 221 203 187 193 201 207 190 156 101 60 53 51 51 69 82 82 84
331 336 328 318 313 314 281 269 268 272 281 303 298 291 307 303 303 293 294 293 293 236 203 228 234 322 322 307 300 292 294 278 283 264 278 272 225 208 202 198 199 203 198 189 182 152 89 85 83 90 92 91 92 91
348 350 343 333 313 220 264 295 278 275 291 284 291 323 313 297 298 302 298 323 247 287 342 13 338 324 327 314 306 300 290 276 271 269 255 270 231 211 207 202 207 203 199 191 181 165 143 109 119 120 105 103 105 107
348 341 332 332 296 276 265 255 262 290 285 283 308 287 272 271 281 268 286 29 64 33 358 335 333 331 325 324 321 304 287 283 272 257 259 256 249 215 209 203 198 197 204 201 196 183 162 142 138 137 125 119 118 112
339 334 328 322 293 269 273 292 268 291 291 306 314 284 286 292 289 316 44 54 29 357 350 342 341 338 325 331 341 339 315 274 260 255 252 238 239 234 225 210 204 202 202 203 199 190 174 158 149 149 143 136 134 125
340 316 316 308 292 280 307 286 303 268 288 321 306 299 319 317 325 4 65 29 7 8 7 3 355 352 351 344 340 344 349 338 266 258 257 234 226 229 218 209 200 202 202 199 198 193 186 173 163 160 154 147 140 136
328 257 210 282 244 269 271 274 282 306 295 324 268 267 279 314 320 35 53 11 356 356 358 10 7 10 357 351 336 330 331 335 321 259 239 246 236 218 207 210 220 208 205 203 197 197 194 188 179 174 169 169 164 154
290 231 179 239 264 239 325 310 303 318 312 279 290 338 319 293 340 43 36 359 351 350 352 1 4 1 0 3 357 347 318 320 313 274 251 237 230 208 201 200 200 202 206 212 206 202 202 197 191 187 181 177 178 175
283 283 245 242 265 294 294 275 278 270 275 300 359 309 302 2 30 353 344 349 347 356 4 13 14 13 5 9 7 8 332 312 330 322 307 227 220 219 222 208 210 221 198 214 211 209 207 203 198 197 194 191 195 194
236 266 236 260 286 253 246 244 271 265 285 298 326 345 15 34 348 330 333 353 1 7 12 17 20 25 27 30 25 21 33 81 100 101 103 115 132 177 194 208 208 188 235 237 210 213 212 213 205 201 202 202 196 192
247 251 273 277 272 237 233 222 250 250 285 0 339 14 84 50 8 358 9 15 22 20 16 14 16 24 29 36 39 38 34 38 56 69 66 58 71 71 102 142 196 250 256 231 212 211 217 216 210 206 203 203 199 195
249 222 248 265 250 237 235 213 235 272 309 305 281 116 98 67 40 38 29 29 26 25 30 30 28 30 30 30 33 40 37 35 33 38 34 27 22 22 30 47 133 150 241 225 209 197 212 211 203 199 200 196 196 195
271 243 242 239 260 259 295 300 286 274 94 35 59 169 149 129 41 31 31 29 29 29 30 33 35 35 37 35 32 34 39 42 41 40 34 24 8 7 7 335 320 275 234 243 233 223 231 223 209 200 198 198 196 195
237 221 233 266 281 305 318 153 120 83 63 55 25 69 92 78 45 21 15 18 24 25 28 33 39 37 39 38 39 42 40 35 35 35 35 34 31 21 348 331 292 262 289 277 258 247 226 215 210 205 199 195 195 190
268 270 259 274 286 298 310 207 125 101 85 78 52 56 65 78 76 20 12 22 27 25 29 34 37 34 34 35 37 39 38 39 41 41 37 32 31 36 39 36 19 321 293 274 244 219 212 204 218 215 204 196 189 179
Wind_Speed_850mb
51 54 58 58 59 59 57 57 56 59 56 53 52 42 31 28 20 24 33 28 30 22 48 50 44 25 31 22 5 16 19 7 8 10 6 5 5 6 7 7 12 5 6 3 4 10 3 11 17 6 15 45 42 27
52 53 56 66 68 63 56 52 56 54 52 50 46 44 38 24 22 24 39 33 31 40 54 75 83 76 80 72 36 10 9 9 7 4 3 4 5 5 7 5 8 6 3 7 5 6 23 36 25 34 42 48 21 33
53 55 59 65 69 65 58 54 53 50 50 49 45 41 36 28 15 23 36 34 37 36 46 37 13 1 17 15 24 16 11 8 7 5 3 4 8 3 5 5 7 8 3 6 13 6 16 17 27 26 33 43 31 40
54 58 61 65 67 63 56 51 51 51 50 47 42 40 36 29 24 29 36 34 35 18 10 19 15 51 35 30 35 34 21 7 7 9 6 5 6 9 5 8 5 10 10 10 12 17 42 13 46 37 42 39 37 61
57 60 62 62 60 58 55 52 49 47 48 46 44 41 38 31 27 32 39 39 37 30 9 26 53 6 17 18 30 30 46 29 9 5 6 5 7 4 6 3 6 5 7 6 12 36 30 39 53 46 44 39 49 63
59 57 56 56 55 55 52 50 48 47 45 46 44 40 33 27 24 21 11 7 5 28 9 7 20 15 21 3 15 26 34 31 12 7 9 11 12 6 4 4 13 15 26 18 15 47 51 47 42 29 38 40 49 50
55 53 54 54 51 50 50 50 49 48 48 46 45 37 29 24 23 14 7 5 9 15 8 8 12 9 19 4 12 19 25 19 15 8 8 8 9 10 4 5 12 35 30 38 42 52 32 39 39 38 44 42 51 41
53 51 52 51 49 49 50 49 49 48 44 45 42 32 23 21 22 23 4 18 23 15 11 5 8 14 5 6 6 13 11 13 11 7 7 7 8 5 6 15 25 26 30 31 50 53 46 43 35 29 33 48 59 62
51 50 49 47 47 47 47 48 47 43 43 44 26 14 7 2 6 6 10 9 40 19 8 7 3 7 5 10 8 7 11 5 6 5 6 7 3 7 11 11 18 20 26 33 46 46 43 36 30 25 24 38 54 58
48 49 47 45 43 43 45 44 46 44 46 34 15 5 7 4 12 14 6 7 11 18 16 8 12 6 6 5 3 2 4 3 4 8 4 4 6 21 22 8 9 24 29 32 35 38 36 34 35 33 34 29 32 35
45 46 45 44 41 40 39 38 41 49 44 31 18 6 9 13 11 6 6 9 9 6 11 12 24 13 12 6 6 4 2 2 3 5 3 5 6 7 2 4 13 18 20 25 29 25 27 23 26 31 35 30 29 28
41 43 42 40 39 36 34 33 38 48 41 38 24 23 12 6 7 4 7 8 9 8 9 8 11 21 9 14 4 5 4 2 8 6 3 5 7 6 8 4 7 16 17 18 29 33 30 26 28 28 31 31 27 26
41 39 39 38 38 36 34 33 39 42 43 11 6 7 7 6 7 11 10 7 6 8 5 11 7 9 11 11 6 2 2 8 3 4 6 8 7 7 11 8 1 8 18 20 24 31 32 24 20 25 30 31 22 22
40 37 35 37 36 34 36 38 43 40 20 5 7 9 10 9 12 10 9 5 5 12 18 28 16 11 11 5 4 6 5 5 5 2 10 6 18 16 18 9 5 7 8 16 22 27 32 31 27 21 23 26 22 24
40 39 32 25 25 36 43 42 41 34 11 9 8 10 11 19 18 13 19 15 21 28 16 13 4 4 2 5 5 3 4 5 10 9 6 11 17 23 21 17 13 7 3 13 23 27 29 28 25 22 22 20 22 18
39 39 22 31 35 40 42 42 38 13 9 12 16 10 18 4 9 7 10 20 20 19 29 9 4 5 8 4 5 11 12 11 8 7 15 9 18 25 21 20 11 9 2 4 11 20 25 24 26 24 18 14 19 18
36 30 36 37 39 40 38 38 11 12 12 11 14 22 34 35 26 26 14 37 32 19 5 5 9 13 4 4 4 6 9 7 14 14 16 19 23 23 19 13 15 13 7 3 11 16 21 22 21 23 29 23 19 17
33 34 34 33 37 41 33 6 9 10 13 21 13 19 12 22 30 33 36 35 17 8 7 6 3 7 7 7 5 5 16 25 19 21 18 19 20 21 21 21 19 17 11 8 5 11 17 18 22 26 25 22 18 21
34 35 33 28 18 22 10 7 9 10 17 26 27 38 30 31 39 37 37 37 37 28 13 9 9 7 7 11 10 25 31 10 25 27 22 24 23 21 22 26 21 23 18 13 7 9 12 16 22 21 21 24 34 32
31 27 18 14 19 10 8 12 11 16 12 16 35 37 25 30 39 39 46 47 41 13 11 6 7 6 12 26 28 34 34 33 20 35 49 25 30 26 30 28 24 25 24 23 17 8 10 14 18 21 24 32 36 36
29 27 28 29 15 13 10 11 11 13 21 16 28 30 32 37 26 32 21 12 9 2 5 19 31 41 41 36 38 38 37 42 49 44 44 32 27 35 36 31 24 33 36 33 29 23 13 14 17 19 21 29 35 40
25 32 31 17 5 4 11 12 13 24 16 23 28 14 16 12 18 15 17 1 8 12 16 32 42 50 48 40 41 39 37 32 34 40 47 44 28 35 43 44 38 38 42 34 33 30 24 18 19 20 20 27 35 39
28 24 11 7 5 6 13 12 8 9 7 15 28 10 7 9 9 18 5 11 13 28 34 34 40 39 42 37 38 33 24 25 35 38 38 44 33 28 31 44 41 41 46 40 39 33 28 25 20 19 20 23 29 35
17 5 4 6 5 9 13 6 7 11 9 8 8 10 12 12 20 12 6 7 20 49 48 44 43 50 45 40 44 44 38 21 24 39 45 39 42 39 34 44 38 39 40 39 43 38 32 28 25 22 21 25 30 32
4 2 3 7 7 5 7 4 7 3 6 17 6 6 5 11 5 5 5 21 46 47 53 53 43 43 47 55 48 45 37 32 20 23 28 27 29 39 36 45 43 41 41 49 50 45 40 34 29 26 26 27 27 27
3 5 7 6 5 4 6 6 6 6 14 7 6 16 16 4 2 8 7 35 47 52 54 50 53 52 52 54 63 54 39 34 23 21 25 27 30 37 43 45 46 48 43 43 51 52 48 44 37 33 28 25 25 27
5 8 8 10 10 14 10 14 21 7 6 6 6 7 6 7 9 9 32 44 52 51 44 43 46 43 42 53 60 57 20 19 12 10 9 12 28 26 36 45 35 35 33 36 52 52 48 49 45 39 33 26 23 23
12 8 7 5 10 12 7 5 5 4 5 6 15 5 7 7 6 22 36 46 43 44 43 42 41 43 47 54 61 68 41 21 30 38 31 23 17 18 22 27 19 18 14 23 42 50 46 42 45 43 38 31 29 28
9 9 10 20 13 8 8 8 6 6 4 5 6 5 7 7 20 26 37 40 42 44 46 48 48 44 42 47 60 69 70 67 52 51 48 40 32 31 18 17 17 17 14 19 43 48 42 38 39 39 36 32 30 30
8 9 7 7 6 6 10 18 12 12 13 19 9 21 20 22 39 30 33 41 48 45 43 43 45 48 52 57 53 59 60 64 68 64 55 50 43 27 20 13 6 6 7 20 38 41 40 33 42 45 42 40 37 36
7 5 7 10 10 12 17 15 16 10 2 7 6 12 18 9 21 47 43 40 42 46 48 53 55 56 57 57 60 59 64 61 62 60 53 41 29 19 12 10 12 9 22 24 43 45 49 46 50 55 52 47 40 37
8 13 7 5 10 15 20 6 7 7 8 11 14 7 8 8 11 27 52 40 42 45 45 44 48 53 55 55 54 52 51 50 54 59 63 68 60 36 12 7 6 14 17 21 31 48 50 51 59 57 58 53 45 39
13 15 12 7 8 6 5 8 7 8 8 6 9 17 15 8 8 21 29 40 38 34 30 31 32 37 43 46 48 48 49 49 51 51 50 49 54 59 43 28 19 11 12 11 19 30 36 43 44 53 57 57 51 47
Wind_Direction_850mb
321 323 326 329 328 325 321 320 324 322 321 325 330 326 320 310 294 288 292 289 283 264 284 279 272 255 273 259 248 317 333 339 352 28 346 348 294 327 301 298 320 314 298 273 249 237 313 323 331 299 308 297 300 328
321 324 327 328 329 330 327 326 320 322 320 321 323 322 323 307 307 289 285 291 287 271 270 288 288 278 263 256 262 274 287 308 294 32 306 316 307 295 292 301 331 299 170 297 209 272 270 296 229 268 288 307 307 322
320 321 321 322 324 323 323 323 322 321 321 322 324 321 321 307 291 285 287 290 288 286 295 290 315 158 327 292 215 221 238 217 244 245 260 272 277 275 303 301 299 277 231 263 303 264 317 333 337 268 316 308 305 322
316 316 319 320 320 322 323 323 322 322 320 320 320 318 313 307 278 268 274 274 276 269 281 285 293 305 301 273 240 255 233 224 275 248 254 253 260 211 263 267 260 237 329 295 273 293 324 294 325 332 334 335 334 339
314 315 317 314 319 321 323 325 325 323 322 323 324 320 315 300 293 295 297 283 258 236 284 288 309 326 324 273 239 223 220 237 226 232 233 250 259 256 229 261 259 228 266 328 315 315 315 304 318 334 337 341 331 333
316 319 320 320 321 321 324 327 326 323 323 320 317 314 309 300 293 328 324 18 231 209 270 296 321 307 339 346 193 199 213 228 235 224 237 262 256 246 280 263 264 288 323 333 288 324 314 313 318 336 330 330 328 337
316 319 319 320 321 321 325 326 326 327 327 321 318 310 299 286 275 241 245 280 329 193 255 274 294 282 313 242 188 209 220 226 231 249 230 249 276 217 252 244 278 330 323 338 338 338 327 332 330 345 331 337 347 354
316 319 318 320 321 324 326 327 329 330 328 326 320 310 295 276 267 269 350 240 189 212 251 277 278 316 236 254 232 200 208 217 231 240 247 223 275 247 264 255 302 327 338 359 345 353 343 341 351 1 343 342 351 8
314 316 317 321 323 326 328 329 330 333 334 331 325 335 334 191 188 219 273 262 221 204 274 201 209 270 280 264 229 217 213 198 244 234 242 176 209 234 233 265 314 342 358 345 341 352 357 9 16 23 16 356 2 17
312 313 317 320 322 326 328 332 334 336 338 336 320 265 255 232 268 289 242 228 201 211 223 240 196 258 293 280 263 217 219 236 220 235 256 229 258 263 273 287 359 359 353 352 352 341 359 11 20 19 27 35 16 14
311 313 317 322 324 327 329 335 338 337 346 358 339 296 282 271 288 240 230 207 191 262 234 238 221 229 248 202 233 203 209 223 285 271 226 256 266 256 100 347 3 360 5 9 12 5 6 11 16 11 18 26 40 40
311 312 316 322 323 326 328 335 340 340 341 325 310 303 307 251 243 239 216 180 195 234 211 202 236 209 237 219 205 202 204 129 249 335 40 275 256 255 286 183 357 1 1 11 16 19 13 19 37 34 25 25 35 45
316 315 317 319 318 318 318 330 336 335 331 327 290 271 242 232 235 219 211 217 213 192 161 336 285 235 197 221 227 129 166 231 348 38 236 231 261 248 174 199 130 8 349 1 4 10 16 15 19 35 40 35 39 60
313 318 319 319 315 312 318 324 327 331 330 269 243 257 206 216 224 208 196 205 172 229 270 285 230 210 174 181 172 175 224 74 20 319 240 250 219 206 192 204 273 317 356 15 14 12 8 11 14 28 46 48 48 67
313 320 325 322 319 312 314 315 313 313 268 253 221 241 237 238 258 269 262 269 286 306 332 318 216 195 143 269 210 136 107 260 208 233 235 251 194 182 195 215 242 267 354 16 14 12 12 10 21 28 32 48 52 53
314 323 326 323 318 312 314 314 315 295 238 235 230 256 255 300 290 275 299 289 314 314 312 223 185 220 214 214 193 211 135 222 248 223 250 229 196 199 206 206 220 198 254 51 68 23 15 21 20 24 36 50 69 64
316 326 327 329 322 319 319 315 281 225 235 239 248 254 264 280 265 281 291 295 307 304 253 181 198 219 160 203 231 206 201 227 221 237 247 224 213 205 210 205 203 188 187 103 36 34 39 27 20 30 45 51 55 70
317 324 329 329 327 327 325 267 256 252 251 254 257 270 272 269 280 292 300 309 300 262 265 262 176 195 220 213 237 235 273 268 250 264 270 245 235 212 202 197 199 197 197 160 101 55 44 37 36 39 42 55 62 64
322 331 335 330 324 328 298 274 243 264 255 275 278 286 285 291 297 298 296 300 302 286 271 249 239 198 220 224 224 232 258 289 291 305 297 248 239 221 203 187 193 201 207 190 156 101 60 53 51 51 69 82 82 84
331 336 328 318 313 314 281 269 268 272 281 303 298 291 307 303 303 293 294 293 293 236 203 228 234 322 322 307 300 292 294 278 283 264 278 272 225 208 202 198 199 203 198 189 182 152 89 85 83 90 92 91 92 91
348 350 343 333 313 220 264 295 278 275 291 284 291 323 313 297 298 302 298 323 247 287 342 13 338 324 327 314 306 300 290 276 271 269 255 270 231 211 207 202 207 203 199 191 181 165 143 109 119 120 105 103 105 107
348 341 332 332 296 276 265 255 262 290 285 283 308 287 272 271 281 268 286 29 64 33 358 335 333 331 325 324 321 304 287 283 272 257 259 256 249 215 209 203 198 197 204 201 196 183 162 142 138 137 125 119 118 112
339 334 328 322 293 269 273 292 268 291 291 306 314 284 286 292 289 316 44 54 29 357 350 342 341 338 325 331 341 339 315 274 260 255 252 238 239 234 225 210 204 202 202 203 199 190 174 158 149 149 143 136 134 125
340 316 316 308 292 280 307 286 303 268 288 321 306 299 319 317 325 4 65 29 7 8 7 3 355 352 351 344 340 344 349 338 266 258 257 234 226 229 218 209 200 202 202 199 198 193 186 173 163 160 154 147 140 136
328 257 210 282 244 269 271 274 282 306 295 324 268 267 279 314 320 35 53 11 356 356 358 10 7 10 357 351 336 330 331 335 321 259 239 246 236 218 207 210 220 208 205 203 197 197 194 188 179 174 169 169 164 154
290 231 179 239 264 239 325 310 303 318 312 279 290 338 319 293 340 43 36 359 351 350 352 1 4 1 0 3 357 347 318 320 313 274 251 237 230 208 201 200 200 202 206 212 206 202 202 197 191 187 181 177 178 175
283 283 245 242 265 294 294 275 278 270 275 300 359 309 302 2 30 353 344 349 347 356 4 13 14 13 5 9 7 8 332 312 330 322 307 227 220 219 222 208 210 221 198 214 211 209 207 203 198 197 194 191 195 194
236 266 236 260 286 253 246 244 271 265 285 298 326 345 15 34 348 330 333 353 1 7 12 17 20 25 27 30 25 21 33 81 100 101 103 115 132 177 194 208 208 188 235 237 210 213 212 213 205 201 202 202 196 192
247 251 273 277 272 237 233 222 250 250 285 0 339 14 84 50 8 358 9 15 22 20 16 14 16 24 29 36 39 38 34 38 56 69 66 58 71 71 102 142 196 250 256 231 212 211 217 216 210 206 203 203 199 195
249 222 248 265 250 237 235 213 235 272 309 305 281 116 98 67 40 38 29 29 26 25 30 30 28 30 30 30 33 40 37 35 33 38 34 27 22 22 30 47 133 150 241 225 209 197 212 211 203 199 200 196 196 195
271 243 242 239 260 259 295 300 286 274 94 35 59 169 149 129 41 31 31 29 29 29 30 33 35 35 37 35 32 34 39 42 41 40 34 24 8 7 7 335 320 275 234 243 233 223 231 223 209 200 198 198 196 195
237 221 233 266 281 305 318 153 120 83 63 55 25 69 92 78 45 21 15 18 24 25 28 33 39 37 39 38 39 42 40 35 35 35 35 34 31 21 348 331 292 262 289 277 258 247 226 215 210 205 199 195 195 190
268 270 259 274 286 298 310 207 125 101 85 78 52 56 65 78 76 20 12 22 27 25 29 34 37 34 34 35 37 39 38 39 41 41 37 32 31 36 39 36 19 321 293 274 244 219 212 204 218 215 204 196 189 179